Regional Weather Roundup
Issued by NWS

Home | Current Version | Previous Version | Text Only | Print | Product List | Glossary Off
Versions: 1 2 3 4 5 6 7 8 9 10 11 12 13 14 15 16 17 18 19 20 21 22 23 24 25 26 27 28 29 30 31 32 33 34 35 36 37 38 39 40 41 42 43 44 45 46 47 48 49 50

000
ASUS43 KBIS 311710
RWRND

NORTH DAKOTA REGIONAL WEATHER ROUNDUP
NATIONAL WEATHER SERVICE BISMARCK ND
1200 PM CDT MON AUG 31 2015

NOTE: "FAIR" INDICATES FEW OR NO CLOUDS BELOW 12,000 FEET WITH NO
SIGNIFICANT WEATHER AND/OR OBSTRUCTIONS TO VISIBILITY.


NDZ001>003-009>011-017-311800-
NORTHWEST NORTH DAKOTA

CITY           SKY/WX    TMP DP  RH WIND       PRES   REMARKS
WILLISTON      SUNNY     71  40  32 W17G25    29.88F
MINOT          SUNNY     72  43  35 W24G33    29.84R
MINOT AFB      SUNNY     73  45  37 W18G28    29.82R
$$

NDZ018>021-031>035-040>046-311800-
SOUTHWEST NORTH DAKOTA

CITY           SKY/WX    TMP DP  RH WIND       PRES   REMARKS
BISMARCK       PTSUNNY   74  53  48 NW17G23   29.88R
DICKINSON      SUNNY     71  42  35 NW18      29.94R
GARRISON         N/A     71  49  45 NW16G25   29.88R
HETTINGER ARPT PTSUNNY   73  44  35 NW9       29.97R
$$

NDZ004>008-012>016-024-026-027-054-311800-
NORTHEAST NORTH DAKOTA

CITY           SKY/WX    TMP DP  RH WIND       PRES   REMARKS
GRAND FORKS    CLOUDY    76  66  71 NW16G24   29.73R
GRND FRKS AFB  PTSUNNY   78  65  63 N15G21    29.75R
DEVILS LAKE    MOSUNNY   73  54  49 N14       29.79R
$$

NDZ022-023-025-028>030-036>039-047>053-311800-
SOUTHEAST NORTH DAKOTA

CITY           SKY/WX    TMP DP  RH WIND       PRES   REMARKS
FARGO          MOSUNNY   81  64  56 SW15      29.74R
JAMESTOWN      MOSUNNY   73  60  63 NW18G25   29.82R
$$




USA.gov is the U.S. government's official web portal to all federal, state and local government web resources and services.